Regional Weather Roundup
Issued by NWS Boston, MA

Current Version | Previous Version | Text Only | Print | Product List | Glossary Off
Versions: 1 2 3 4 5 6 7 8 9 10 11 12 13 14 15 16 17 18 19 20 21 22 23 24 25 26 27

000
ASUS41 KBOX 230910
RWRBOX

REGIONAL WEATHER ROUNDUP
NATIONAL WEATHER SERVICE TAUNTON MA
400 AM EST THU NOV 23 2017

NOTE:  "FAIR" INDICATES FEW OR NO CLOUDS BELOW 12,000 FEET WITH NO
SIGNIFICANT WEATHER AND/OR OBSTRUCTIONS TO VISIBILITY.

MAZALL-231000-
EASTERN MASSACHUSETTS

CITY           SKY/WX    TMP DP  RH WIND       PRES   REMARKS
BOSTON         CLEAR     34  22  61 W13       29.99R WCI  25
BEVERLY        CLEAR     32  22  66 NW9       29.96S WCI  24
LAWRENCE       CLEAR     33  21  61 NW8       30.00R WCI  26
BEDFORD        PTCLDY    31  17  56 W10       29.98R WCI  22
BLUE HILL        N/A     29  23  78 NW10      29.95R WCI  20
NORWOOD        CLEAR     33  24  69 W5        30.00R WCI  29
MARSHFIELD     CLEAR     34  25  69 VRB5G13   29.97S WCI  30
PLYMOUTH       CLEAR     34  24  67 NW7       29.98R WCI  28
TAUNTON        CLEAR     34  23  64 W8        29.99R WCI  27
NEW BEDFORD    PTCLDY    33  23  66 NW9       29.99R WCI  25
$$

MAZALL-231000-
CAPE COD AND THE ISLANDS

CITY           SKY/WX    TMP DP  RH WIND       PRES   REMARKS
FALMOUTH       CLEAR     32  25  74 NW6G13    29.99R WCI  26
HYANNIS        CLEAR     35  26  69 W6        29.97R WCI  30
CHATHAM        MOCLDY    38  27  64 NW10G23   29.97R WCI  31
PROVINCETOWN   PTCLDY    37  26  64 NW17G24   29.97R WCI  27
NANTUCKET      CLEAR     38  29  70 NW10      29.98R WCI  31
MARTHAS VNYRD  PTCLDY    36  26  67 NW6       30.00R WCI  31
$$

MAZALL-231000-
CENTRAL AND WESTERN MASSACHUSETTS

CITY           SKY/WX    TMP DP  RH WIND       PRES   REMARKS
WORCESTER      CLEAR     28  17  63 NW10      29.95R WCI  19
FITCHBURG      PTCLDY    32  22  66 NW7       29.98S WCI  26
ORANGE         PTCLDY    28  19  69 N10       30.00S WCI  19
SPRINGFIELD    CLEAR     26  19  74 CALM      30.01S
WESTFIELD      CLEAR     31  20  63 NW8       30.02S WCI  23
NORTH ADAMS    CLOUDY    27  18  69 W9        30.05S WCI  18
PITTSFIELD     CLOUDY    29  20  69 W18       30.01S WCI  16
$$

RIZALL-231000-
RHODE ISLAND

CITY           SKY/WX    TMP DP  RH WIND       PRES   REMARKS
PROVIDENCE     PTCLDY    34  23  64 NW10      30.02R WCI  26
NEWPORT        CLEAR     35  23  61 NW10      30.00R WCI  27
BLOCK ISLAND   CLEAR     35  23  61 NW10G18   30.02R WCI  27
SMITHFIELD     CLEAR     29  24  82 W3        30.00R
WESTERLY       CLEAR     34  23  64 NW7       30.02S WCI  28
$$

CTZALL-231000-
CONNECTICUT

CITY           SKY/WX    TMP DP  RH WIND       PRES   REMARKS
BRADLEY INTL   PTCLDY    29  21  72 W3        30.04R
HARTFORD       CLEAR     33  23  66 NW5       30.05R WCI  29
BRIDGEPORT     CLEAR     33  23  66 W3        30.07S
DANBURY        CLEAR     31  21  66 W5        30.07S WCI  26
GROTON         CLEAR     33  22  63 W7        30.03S WCI  27
NEW HAVEN      CLEAR     35  23  61 NW8       30.06R WCI  29
CHESTER        FAIR      30  23  74 NW7G13    30.02S WCI  23
MERIDEN        CLEAR     31  23  72 CALM      30.06R
WILLIMANTIC    CLEAR     33  21  61 VRB3      30.03R
OXFORD         CLEAR     30  22  72 NW9       30.05R WCI  22
$$

MEZ002-015-021-024-NHZ003-005-008-011-012-014-VTZ005-008-231000-
NORTHERN NEW ENGLAND

CITY           SKY/WX    TMP DP  RH WIND       PRES   REMARKS
PORTLAND ME    PTCLDY    30  25  81 W7        29.94R WCI  23
BANGOR ME      PTCLDY    31  22  69 NW15      29.86R WCI  20
CONCORD NH     CLEAR     29  18  63 NW6       29.98R WCI  23
MANCHESTER NH  PTCLDY    31  19  61 NW12G25   29.97R WCI  22
NASHUA NH      PTCLDY    31  21  66 NW13      29.99R WCI  21
PORTSMOUTH NH  PTCLDY    31  21  67 W9        29.95R WCI  23
JAFFREY NH     PTCLDY    29  21  72 VRB7      29.96S WCI  22
KEENE NH       PTCLDY    28  19  69 N7        30.02S WCI  21
BURLINGTON VT  CLOUDY    23  11  60 N7        30.11R WCI  15
MT. WASHINGTON MOCLDY     9 -11  40 NW58G63     N/A  WCI -20
$$

NYZ052-076-231000-
EASTERN NEW YORK

CITY           SKY/WX    TMP DP  RH WIND       PRES   REMARKS
ALBANY         CLOUDY    31  20  63 NW16      30.11R WCI  20
NEW YORK CITY  CLEAR     35  22  58 NW17G25   30.08F WCI  25
$$

ANZALL-231000-
MARINE OBSERVATIONS

STATION/POSITION TIME  TEMP    WIND        PRES    VSBY  WAVE
                       AIR SEA DIR/SP/G                  HT/PER
                 (UTC) (F)     (DEG/KT/KT) (MB)    (MI)  (FT/S)
BOSTON BUOY      0850   37 51  310/ 21/ 27 1013.0R         4/ 4
BUZZARDS BAY     0800   39     320/ 21/ 26 1015.5R
NANTUCKET SOUND  0850   38 49  320/ 17/ 21 1014.8R         2/ 4
MASS BAY-STELLWA 0804   37 49  310/ 17/ 21 1013.6R         3/ 5
ISLE OF SHOALS   0800   34     290/ 19/ 22 1013.5R
S OF BLOCK IS    NOT AVBL
$$

......................KEY.........................
  SKY/WX - SKY CONDITION/PRESENT WEATHER
  TMP    - TEMPERATURE IN FAHRENHEIT
  DWPT   - DEWPOINT IN FAHRENHEIT
  RH     - RELATIVE HUMIDITY IN PERCENT
  WIND   - DIRECTION AND SPEED IN MPH
  PRES   - MEAN SEA LEVEL PRESSURE IN INCHES OF HG
  WCI    - WIND CHILL INDEX
  VSB    - VISIBILITY IN MILES
  HX     - HEAT INDEX
  TC     - TEMPERATURE IN CELSIUS
  VRB    - VARIABLE WIND DIRECTION
  N/A    - NOT AVAILABLE




USA.gov is the U.S. government's official web portal to all federal, state and local government web resources and services.